SCP
0 0 0 0 0 0 0 0 -0 0 0 0 0 0 0 0 0 0 -0 -0 0 0 -1 -0 -0 0 1 1 1 0 0 -0 -0 0 0 0 -0 -0 -0 -0 -0 -0 -0 -0 -0 -0 0 0 0
0 0 0 0 0 0 0 -0 0 0 0 0 0 0 0 0 0 0 0 0 0 0 0 -0 0 1 0 1 1 0 0 0 -0 -0 0 0 0 -0 -0 -0 -0 -0 -0 -0 -0 -0 0 0 0
0 -0 0 0 0 0 0 0 0 0 0 0 0 0 0 0 0 0 0 0 0 0 0 0 0 1 0 1 1 0 0 0 0 0 0 0 0 0 -0 -0 -0 -0 -0 -0 -0 0 0 0 0
0 0 0 0 0 -0 0 0 0 0 0 0 0 0 0 0 0 0 0 0 0 0 0 0 0 0 0 1 0 0 0 0 0 0 0 0 0 0 -0 -0 -0 -0 -0 -0 -0 0 0 0 0
0 0 0 0 0 0 0 0 0 0 0 0 0 0 0 0 0 0 0 0 0 0 0 0 0 1 1 0 0 0 0 0 0 0 0 0 0 0 0 0 -0 -0 -0 0 0 0 0 0 0
0 0 0 0 -0 0 0 0 0 0 0 0 0 0 0 0 0 0 0 0 0 0 0 0 0 0 1 0 0 0 1 1 0 0 0 0 0 0 0 0 0 0 0 0 0 0 0 0 0
0 0 0 0 0 0 0 0 0 0 0 0 0 0 0 0 0 0 0 0 0 1 1 0 0 0 1 0 0 0 0 1 0 0 0 0 0 0 0 0 0 0 0 0 0 0 0 0 0
0 0 0 0 0 0 0 0 0 0 0 0 0 0 0 0 0 0 0 0 0 0 1 0 0 0 0 0 0 0 0 1 0 0 0 0 0 0 0 0 0 0 0 0 0 0 0 0 0
0 0 0 0 0 0 0 0 0 0 0 0 0 0 0 0 0 0 0 0 0 0 1 0 0 0 0 0 0 1 0 0 0 0 0 0 0 0 0 0 0 0 0 0 0 0 0 0 0
0 0 0 0 0 0 0 0 0 0 0 0 0 0 0 0 0 0 0 0 0 0 1 1 0 0 0 0 0 0 0 0 0 0 0 0 0 0 0 0 0 0 0 0 0 0 0 0 0
0 0 0 0 0 0 0 0 0 0 0 0 0 0 0 0 0 0 0 0 0 1 1 1 1 1 0 0 0 0 0 0 0 0 0 0 0 0 0 0 0 0 0 0 0 0 0 0 0
0 0 0 0 0 0 0 0 0 0 0 0 0 0 0 0 0 0 0 0 0 1 1 1 4 2 0 0 0 0 0 0 0 0 0 0 0 0 0 0 0 0 0 0 0 0 0 0 0
0 0 0 0 0 0 0 0 0 0 0 0 0 0 0 0 0 0 0 0 0 0 1 2 2 4 1 2 0 0 0 0 0 0 0 0 0 0 0 0 0 0 0 0 0 0 0 0 0
0 0 0 0 0 0 0 0 0 0 0 0 0 0 0 0 0 0 0 0 0 0 1 1 2 3 3 2 2 1 1 0 0 0 0 0 0 0 0 0 0 0 0 0 0 0 0 0 0
0 0 0 0 0 0 0 0 -0 -0 0 0 0 0 0 0 0 0 0 0 0 0 0 1 1 2 3 2 2 1 1 0 0 0 0 0 0 0 0 0 0 0 0 0 0 0 0 0 0
0 0 0 0 0 0 0 0 0 0 0 0 0 0 0 0 0 0 0 0 0 0 0 -0 1 1 1 2 2 1 1 1 1 0 0 0 0 0 0 0 0 0 0 0 0 0 0 0 0
0 0 0 0 0 0 0 0 0 0 0 0 0 0 0 0 0 0 0 0 0 0 0 0 1 1 2 2 2 1 2 1 0 0 0 0 0 0 0 0 0 1 0 0 0 0 0 0 0
0 0 0 0 0 0 0 0 0 0 0 0 0 0 0 0 0 0 0 0 0 0 0 1 1 1 2 2 4 2 1 1 0 0 0 0 0 0 1 0 2 1 0 0 0 0 0 0 0
0 0 0 0 0 0 0 0 0 0 0 0 0 0 0 0 0 0 0 0 0 0 0 1 1 2 3 2 2 3 1 1 0 0 0 0 0 0 1 0 1 1 0 0 1 0 0 0 0
0 0 0 0 0 0 0 0 0 -0 0 0 0 0 0 0 0 0 0 0 0 0 0 1 2 2 3 3 4 3 2 1 1 0 1 0 0 1 1 1 1 1 1 1 1 0 0 0 0
0 0 0 0 0 0 -0 0 -0 0 0 0 0 0 0 0 0 0 0 0 0 0 0 1 2 2 4 3 2 2 3 2 1 1 0 1 1 1 1 1 1 1 1 0 1 0 0 0 0
0 0 0 0 0 0 0 0 0 0 0 0 0 0 0 0 0 0 0 0 0 0 0 1 2 3 3 3 3 2 2 3 1 1 1 1 1 1 1 1 2 2 0 1 0 0 0 0 0
0 0 0 0 0 0 0 0 0 0 0 0 0 0 0 0 0 0 0 0 0 0 0 1 2 3 3 3 3 3 2 3 2 1 2 1 3 2 2 2 2 2 0 1 0 0 0 0 0
0 0 0 -0 0 0 0 0 0 0 0 0 0 0 0 0 0 0 0 0 0 0 0 0 2 3 3 3 3 3 3 4 2 1 1 1 1 3 2 2 2 1 1 1 0 0 0 0 0
-0 0 0 0 0 0 0 0 0 0 0 0 0 0 0 0 0 0 0 0 0 0 0 0 1 2 2 3 3 2 4 5 1 2 1 2 1 2 3 2 2 1 1 0 0 0 0 0 0
0 0 0 0 0 -0 0 -0 -0 0 0 0 0 0 0 0 0 0 0 0 0 0 -0 0 1 2 2 2 3 4 3 3 3 2 2 2 2 3 3 2 1 0 0 0 0 0 0 0 0
0 0 0 0 0 0 0 0 0 0 0 0 0 0 0 0 0 0 0 0 0 0 0 0 1 1 2 3 3 4 4 3 1 2 1 2 3 3 1 1 0 0 0 0 0 0 0 0 0
0 0 0 0 0 0 0 -0 0 0 0 0 0 0 0 0 0 0 0 0 0 0 0 0 0 0 1 2 3 4 3 4 4 2 2 2 3 2 1 0 0 0 0 0 0 0 0 0 0
0 0 0 0 0 0 0 0 0 0 0 0 0 0 0 0 0 0 0 0 0 0 0 0 0 1 1 2 3 3 4 4 7 6 2 7 4 2 0 0 0 0 0 0 0 0 0 0 0
0 0 0 0 0 0 0 0 0 0 0 0 0 -0 0 0 0 0 0 0 0 0 0 0 1 1 1 1 2 3 3 3 4 1 1 3 3 1 0 0 0 0 0 0 0 0 0 0 0
Wind_Speed_500mb
6 8 10 16 15 16 33 36 35 9 13 11 15 9 20 27 20 9 12 8 6 19 31 46 45 44 40 40 40 43 39 36 38 39 38 35 32 27 24 23 20 18 15 12 8 6 3 3 6
10 11 14 24 17 28 25 34 15 14 17 6 7 12 17 16 16 22 11 16 11 20 30 50 50 47 44 41 42 46 42 38 39 41 38 35 31 26 23 21 19 17 14 10 7 4 2 5 8
8 16 26 11 28 30 30 11 3 16 11 10 9 10 17 15 24 14 18 10 6 17 25 41 51 48 45 42 45 50 44 39 40 40 37 34 29 26 22 19 17 15 12 10 6 2 3 5 6
9 16 24 22 35 32 31 12 9 15 9 14 18 10 9 11 7 14 12 5 5 17 25 41 50 49 45 42 44 51 48 42 41 40 38 34 29 24 21 19 16 13 11 9 5 1 3 3 7
17 26 24 30 37 41 5 17 6 19 18 10 10 23 20 11 6 17 19 7 6 18 24 36 48 47 42 43 46 50 50 45 41 38 36 33 29 24 21 19 15 12 11 8 3 0 1 3 7
25 22 25 28 39 33 9 13 17 28 23 13 17 23 21 5 4 22 14 7 6 19 26 34 50 50 45 45 46 51 51 47 42 37 35 33 29 25 20 18 16 13 11 7 3 1 1 3 8
27 22 30 35 36 25 6 5 8 30 35 28 14 13 21 18 7 21 16 6 7 21 28 33 52 50 46 46 45 47 50 46 43 38 35 34 30 25 20 18 17 15 11 6 4 3 1 6 9
21 20 36 32 24 28 10 9 17 16 27 28 10 16 31 12 19 21 16 6 8 20 31 26 43 52 50 48 47 47 50 48 43 39 37 35 30 25 20 18 18 16 10 7 5 4 1 7 11
17 20 25 28 13 16 4 8 17 9 27 35 39 40 42 39 33 22 16 14 17 23 32 27 40 40 41 40 51 50 50 48 44 42 40 34 25 23 20 22 20 15 11 7 4 2 3 10 13
19 21 27 22 22 19 22 19 22 20 28 36 37 42 39 34 31 28 28 19 20 28 34 33 42 42 41 39 46 53 51 48 46 46 43 33 25 21 19 23 20 15 11 8 4 2 10 13 9
16 23 29 17 15 20 28 33 34 31 31 30 32 32 30 33 33 34 32 31 19 27 24 43 47 50 46 43 38 41 40 41 41 40 45 33 30 30 27 22 22 16 12 5 6 9 11 3 5
23 31 20 29 26 27 29 39 40 42 41 37 37 42 36 33 35 37 37 34 23 30 35 30 51 61 53 47 43 41 42 42 42 41 44 34 32 31 26 19 17 15 12 13 10 7 9 3 7
30 25 21 31 32 36 37 40 43 45 42 40 37 45 40 32 30 29 30 31 19 26 30 52 38 61 60 53 47 46 44 45 42 43 43 39 32 31 28 25 22 15 15 12 11 8 6 5 3
30 24 35 37 36 27 27 34 37 41 29 25 28 36 43 36 31 27 26 24 24 28 32 36 53 61 69 56 55 54 51 46 45 42 41 41 36 39 33 28 23 21 16 14 10 14 6 4 5
27 33 35 36 22 18 24 33 47 37 11 26 29 31 34 38 34 34 32 28 29 28 29 39 48 58 71 64 61 60 57 48 44 40 47 43 42 40 33 26 25 22 18 19 15 8 5 5 15
32 32 25 17 14 30 16 31 32 10 19 25 26 27 37 43 43 40 38 36 31 32 33 37 43 58 72 70 65 57 49 53 51 50 51 48 46 42 39 28 25 21 20 15 14 8 7 10 15
25 21 20 30 20 15 27 39 35 26 30 39 45 46 44 46 46 44 41 41 40 38 37 40 47 55 69 72 64 59 54 52 47 49 43 50 49 44 42 31 26 28 20 18 15 9 12 15 11
33 38 36 36 32 34 40 46 39 50 48 54 56 51 46 51 52 48 42 42 43 38 42 46 49 59 64 75 74 62 57 54 49 47 41 50 47 42 45 34 36 33 21 17 15 15 15 11 8
30 35 41 39 36 34 41 43 40 42 49 48 55 52 48 52 52 48 45 43 45 42 45 51 55 64 69 79 79 71 70 65 51 46 47 49 44 44 51 29 33 31 24 19 30 21 18 9 12
32 39 41 35 27 31 42 46 42 42 40 49 52 52 50 51 50 48 48 46 48 46 48 52 58 65 71 79 86 70 66 62 57 49 55 52 51 49 48 38 31 30 25 30 30 20 13 12 12
29 32 30 35 36 41 50 42 44 10 16 29 33 38 42 47 49 48 48 49 47 50 50 50 58 66 76 79 84 73 69 62 59 57 55 57 55 47 45 45 30 31 30 25 27 22 20 13 11
29 30 33 37 34 30 33 38 32 24 17 23 28 30 40 35 36 43 46 48 47 52 50 51 56 66 74 78 80 80 69 73 66 59 52 52 53 46 43 41 39 35 31 28 26 23 19 21 11
33 32 39 42 37 37 44 25 22 17 24 16 16 23 22 27 31 39 43 42 45 49 50 49 55 65 69 73 75 76 74 67 59 62 64 53 58 52 46 44 41 36 29 31 30 24 20 19 17
32 35 40 50 36 29 26 10 21 23 23 19 17 21 20 26 32 37 41 36 37 45 50 51 53 64 67 70 73 78 76 65 60 58 55 51 49 53 46 48 41 33 32 40 29 25 24 23 20
31 33 24 24 9 24 12 28 29 26 12 21 26 30 29 32 35 42 31 32 27 38 49 52 54 57 64 70 75 73 78 70 69 63 55 57 50 51 54 51 46 35 38 30 27 26 27 31 23
31 18 13 15 26 39 53 36 35 25 23 13 24 28 29 33 35 26 30 36 32 36 44 52 54 58 60 64 78 72 70 60 67 75 63 49 51 56 55 57 43 38 35 31 29 28 20 26 24
11 19 17 32 40 34 35 38 35 21 21 10 16 22 30 28 22 21 27 31 26 26 46 49 53 60 61 63 69 71 74 71 59 58 65 65 55 56 59 52 46 41 35 32 30 26 29 24 20
25 19 20 11 15 26 29 44 19 26 33 33 13 19 21 36 22 26 34 26 34 31 39 41 57 52 68 64 70 72 81 80 68 53 64 63 61 66 66 54 50 41 34 34 34 30 29 27 22
14 22 12 14 19 28 33 20 18 38 28 29 38 36 26 46 51 33 44 43 37 40 36 48 52 55 59 68 67 63 75 73 62 55 68 67 68 70 57 51 50 40 38 37 40 30 30 31 30
19 29 4 6 21 17 27 43 48 14 21 31 34 45 53 58 60 62 40 48 45 40 36 39 52 59 58 68 65 64 57 62 62 71 71 61 76 74 56 52 47 42 41 41 39 33 32 32 29
Wind_Direction_500mb
183 284 257 236 238 233 250 237 251 114 234 85 11 230 321 352 344 57 120 3 184 184 201 187 185 178 176 179 177 187 182 176 167 157 158 156 153 150 152 148 148 147 143 140 138 142 125 33 12
148 233 223 259 246 243 235 232 185 251 66 92 237 268 264 272 43 72 55 16 142 182 196 191 188 183 179 182 178 186 185 179 171 163 163 162 160 157 157 154 152 151 144 144 144 146 67 15 8
174 207 249 228 235 253 266 13 100 235 73 272 277 228 312 13 42 5 9 43 135 187 191 198 190 186 182 180 183 187 186 183 175 168 167 168 168 164 161 160 158 156 153 152 153 123 22 6 24
196 208 255 255 254 237 262 25 319 317 242 235 262 286 202 58 28 0 347 298 251 191 187 219 194 188 187 184 189 189 188 187 181 176 173 175 173 169 165 164 165 163 158 155 155 63 355 13 24
218 248 245 239 250 265 185 300 337 274 268 239 206 270 258 147 90 351 342 336 213 199 197 228 198 192 190 188 191 193 191 187 188 184 180 181 176 175 172 167 172 173 167 166 155 332 353 28 16
230 250 247 248 244 242 241 279 239 269 268 250 255 248 266 219 277 342 342 313 203 192 185 221 196 192 195 195 193 194 193 189 192 190 190 187 181 179 178 172 178 181 179 180 169 194 197 36 8
251 250 253 269 277 286 141 302 293 266 260 253 284 293 266 203 30 343 336 309 189 184 190 221 194 191 197 196 197 196 196 194 195 197 197 192 184 186 184 185 184 186 190 197 190 176 245 19 9
284 283 270 265 260 264 291 119 271 277 271 293 309 248 212 330 337 312 314 287 210 187 192 193 189 194 196 197 200 197 197 198 201 202 201 194 190 191 191 194 194 190 199 206 186 167 338 18 11
270 265 259 272 243 269 322 278 281 246 279 282 272 270 278 296 300 291 279 273 227 203 196 190 187 190 187 191 196 199 201 203 204 204 200 195 198 195 196 196 197 197 201 203 192 199 21 14 45
259 273 280 26 346 313 310 292 282 285 264 266 272 269 267 274 283 282 278 253 243 212 198 197 189 193 185 192 199 195 199 201 199 200 197 189 197 185 184 220 201 200 196 198 195 46 50 31 282
277 266 319 313 296 301 291 283 275 265 267 263 274 283 288 279 274 276 270 269 228 238 207 202 193 196 186 192 193 184 187 188 189 192 198 175 198 200 183 218 204 199 194 213 346 29 24 344 263
278 277 280 288 297 284 277 284 281 274 271 276 276 276 281 275 270 271 262 259 225 223 224 207 202 196 186 193 197 188 187 189 187 194 199 185 190 206 187 200 197 190 217 195 205 244 225 335 324
260 271 295 285 283 277 282 274 277 276 272 267 261 268 270 270 265 269 259 259 257 217 223 207 209 194 187 193 190 190 191 192 193 194 192 197 187 199 193 196 191 198 202 220 215 236 231 277 308
317 288 285 279 276 280 276 278 276 271 263 255 256 260 268 267 265 259 260 256 241 240 227 224 214 199 185 191 188 188 188 195 193 193 196 194 184 199 191 196 182 192 202 214 213 218 183 235 258
283 281 273 261 251 274 286 281 253 265 276 267 252 255 264 271 267 263 253 249 243 235 230 236 214 211 198 196 190 189 187 190 193 194 199 189 181 205 184 192 186 193 198 210 213 237 228 205 240
247 262 278 148 212 254 254 275 291 212 247 257 252 265 268 270 268 262 258 250 248 238 230 228 227 214 210 199 198 193 194 191 188 192 209 195 187 201 175 188 195 197 192 199 213 205 222 222 251
201 271 289 300 291 283 258 277 292 279 276 269 263 265 267 264 265 260 251 248 243 240 234 224 225 217 211 202 199 193 196 193 190 193 197 198 194 197 182 188 191 200 196 204 201 204 228 219 249
322 308 300 298 299 300 287 279 272 276 275 272 270 269 258 265 261 263 257 247 241 238 233 224 222 227 217 209 196 194 197 195 194 191 193 200 192 194 183 189 195 207 191 202 197 210 213 234 236
294 283 284 287 289 295 286 286 284 276 266 265 269 265 264 264 262 261 256 249 241 234 230 228 222 223 219 211 197 192 194 189 196 193 195 201 190 192 195 190 199 193 197 199 209 215 226 215 220
279 279 279 289 302 309 293 286 287 273 266 264 267 271 266 268 266 260 255 251 240 234 227 226 222 220 219 215 200 196 199 194 193 194 194 203 192 194 197 184 201 196 198 207 220 203 201 210 210
290 293 310 316 306 285 273 273 273 248 258 273 251 265 275 273 272 267 262 258 244 228 226 223 224 221 218 216 207 198 198 194 193 194 196 198 191 197 200 184 196 210 189 227 219 207 204 214 213
298 335 313 297 294 290 318 291 282 260 273 265 282 275 255 273 272 273 262 255 243 228 227 221 224 224 216 212 214 205 199 190 195 193 190 187 186 194 189 194 191 207 198 216 223 211 207 188 205
292 309 297 279 273 278 272 252 281 305 286 296 253 242 288 277 280 281 270 255 242 230 226 223 222 227 213 211 210 204 198 195 194 188 190 183 192 194 192 197 196 209 184 215 212 217 206 211 189
275 288 296 275 252 248 300 309 299 317 343 319 291 268 274 286 284 292 281 265 248 233 228 221 221 230 211 210 210 204 195 192 187 187 188 176 190 191 187 199 199 198 185 215 215 226 213 183 200
314 309 312 316 180 254 201 296 308 331 324 312 314 282 251 272 287 289 299 291 262 236 233 222 219 224 218 211 206 198 193 193 189 175 178 177 193 193 198 198 200 199 202 214 214 215 212 207 203
305 307 280 311 308 312 314 294 288 304 317 274 272 280 292 274 276 291 305 296 286 271 228 230 217 224 216 208 204 197 192 190 193 193 200 195 194 197 205 200 197 203 206 211 213 205 200 209 203
306 278 293 281 285 279 275 275 277 37 279 299 280 259 260 283 285 296 286 292 295 287 268 235 217 219 212 208 203 200 190 193 184 188 193 199 195 210 209 200 200 206 204 207 204 195 198 196 183
246 289 297 247 282 302 303 309 322 346 334 322 295 263 301 297 300 305 299 299 302 297 284 267 221 220 215 207 206 198 199 195 185 201 194 189 197 195 207 198 199 202 201 199 174 195 193 178 173
246 238 223 295 274 288 294 285 348 331 318 359 341 339 316 326 317 298 300 297 297 298 279 258 230 213 220 207 204 204 201 193 179 195 202 190 196 203 205 189 195 199 198 188 188 179 178 168 171
268 275 245 206 279 263 286 282 285 312 297 318 317 307 311 313 305 312 313 297 290 289 286 259 244 215 222 212 206 200 202 199 196 210 202 192 196 204 193 187 190 194 186 188 185 182 169 173 173
Wind_Speed_850mb
6 8 10 16 15 16 33 36 35 9 13 11 15 9 20 27 20 9 12 8 6 19 31 46 45 44 40 40 40 43 39 36 38 39 38 35 32 27 24 23 20 18 15 12 8 6 3 3 6
10 11 14 24 17 28 25 34 15 14 17 6 7 12 17 16 16 22 11 16 11 20 30 50 50 47 44 41 42 46 42 38 39 41 38 35 31 26 23 21 19 17 14 10 7 4 2 5 8
8 16 26 11 28 30 30 11 3 16 11 10 9 10 17 15 24 14 18 10 6 17 25 41 51 48 45 42 45 50 44 39 40 40 37 34 29 26 22 19 17 15 12 10 6 2 3 5 6
9 16 24 22 35 32 31 12 9 15 9 14 18 10 9 11 7 14 12 5 5 17 25 41 50 49 45 42 44 51 48 42 41 40 38 34 29 24 21 19 16 13 11 9 5 1 3 3 7
17 26 24 30 37 41 5 17 6 19 18 10 10 23 20 11 6 17 19 7 6 18 24 36 48 47 42 43 46 50 50 45 41 38 36 33 29 24 21 19 15 12 11 8 3 0 1 3 7
25 22 25 28 39 33 9 13 17 28 23 13 17 23 21 5 4 22 14 7 6 19 26 34 50 50 45 45 46 51 51 47 42 37 35 33 29 25 20 18 16 13 11 7 3 1 1 3 8
27 22 30 35 36 25 6 5 8 30 35 28 14 13 21 18 7 21 16 6 7 21 28 33 52 50 46 46 45 47 50 46 43 38 35 34 30 25 20 18 17 15 11 6 4 3 1 6 9
21 20 36 32 24 28 10 9 17 16 27 28 10 16 31 12 19 21 16 6 8 20 31 26 43 52 50 48 47 47 50 48 43 39 37 35 30 25 20 18 18 16 10 7 5 4 1 7 11
17 20 25 28 13 16 4 8 17 9 27 35 39 40 42 39 33 22 16 14 17 23 32 27 40 40 41 40 51 50 50 48 44 42 40 34 25 23 20 22 20 15 11 7 4 2 3 10 13
19 21 27 22 22 19 22 19 22 20 28 36 37 42 39 34 31 28 28 19 20 28 34 33 42 42 41 39 46 53 51 48 46 46 43 33 25 21 19 23 20 15 11 8 4 2 10 13 9
16 23 29 17 15 20 28 33 34 31 31 30 32 32 30 33 33 34 32 31 19 27 24 43 47 50 46 43 38 41 40 41 41 40 45 33 30 30 27 22 22 16 12 5 6 9 11 3 5
23 31 20 29 26 27 29 39 40 42 41 37 37 42 36 33 35 37 37 34 23 30 35 30 51 61 53 47 43 41 42 42 42 41 44 34 32 31 26 19 17 15 12 13 10 7 9 3 7
30 25 21 31 32 36 37 40 43 45 42 40 37 45 40 32 30 29 30 31 19 26 30 52 38 61 60 53 47 46 44 45 42 43 43 39 32 31 28 25 22 15 15 12 11 8 6 5 3
30 24 35 37 36 27 27 34 37 41 29 25 28 36 43 36 31 27 26 24 24 28 32 36 53 61 69 56 55 54 51 46 45 42 41 41 36 39 33 28 23 21 16 14 10 14 6 4 5
27 33 35 36 22 18 24 33 47 37 11 26 29 31 34 38 34 34 32 28 29 28 29 39 48 58 71 64 61 60 57 48 44 40 47 43 42 40 33 26 25 22 18 19 15 8 5 5 15
32 32 25 17 14 30 16 31 32 10 19 25 26 27 37 43 43 40 38 36 31 32 33 37 43 58 72 70 65 57 49 53 51 50 51 48 46 42 39 28 25 21 20 15 14 8 7 10 15
25 21 20 30 20 15 27 39 35 26 30 39 45 46 44 46 46 44 41 41 40 38 37 40 47 55 69 72 64 59 54 52 47 49 43 50 49 44 42 31 26 28 20 18 15 9 12 15 11
33 38 36 36 32 34 40 46 39 50 48 54 56 51 46 51 52 48 42 42 43 38 42 46 49 59 64 75 74 62 57 54 49 47 41 50 47 42 45 34 36 33 21 17 15 15 15 11 8
30 35 41 39 36 34 41 43 40 42 49 48 55 52 48 52 52 48 45 43 45 42 45 51 55 64 69 79 79 71 70 65 51 46 47 49 44 44 51 29 33 31 24 19 30 21 18 9 12
32 39 41 35 27 31 42 46 42 42 40 49 52 52 50 51 50 48 48 46 48 46 48 52 58 65 71 79 86 70 66 62 57 49 55 52 51 49 48 38 31 30 25 30 30 20 13 12 12
29 32 30 35 36 41 50 42 44 10 16 29 33 38 42 47 49 48 48 49 47 50 50 50 58 66 76 79 84 73 69 62 59 57 55 57 55 47 45 45 30 31 30 25 27 22 20 13 11
29 30 33 37 34 30 33 38 32 24 17 23 28 30 40 35 36 43 46 48 47 52 50 51 56 66 74 78 80 80 69 73 66 59 52 52 53 46 43 41 39 35 31 28 26 23 19 21 11
33 32 39 42 37 37 44 25 22 17 24 16 16 23 22 27 31 39 43 42 45 49 50 49 55 65 69 73 75 76 74 67 59 62 64 53 58 52 46 44 41 36 29 31 30 24 20 19 17
32 35 40 50 36 29 26 10 21 23 23 19 17 21 20 26 32 37 41 36 37 45 50 51 53 64 67 70 73 78 76 65 60 58 55 51 49 53 46 48 41 33 32 40 29 25 24 23 20
31 33 24 24 9 24 12 28 29 26 12 21 26 30 29 32 35 42 31 32 27 38 49 52 54 57 64 70 75 73 78 70 69 63 55 57 50 51 54 51 46 35 38 30 27 26 27 31 23
31 18 13 15 26 39 53 36 35 25 23 13 24 28 29 33 35 26 30 36 32 36 44 52 54 58 60 64 78 72 70 60 67 75 63 49 51 56 55 57 43 38 35 31 29 28 20 26 24
11 19 17 32 40 34 35 38 35 21 21 10 16 22 30 28 22 21 27 31 26 26 46 49 53 60 61 63 69 71 74 71 59 58 65 65 55 56 59 52 46 41 35 32 30 26 29 24 20
25 19 20 11 15 26 29 44 19 26 33 33 13 19 21 36 22 26 34 26 34 31 39 41 57 52 68 64 70 72 81 80 68 53 64 63 61 66 66 54 50 41 34 34 34 30 29 27 22
14 22 12 14 19 28 33 20 18 38 28 29 38 36 26 46 51 33 44 43 37 40 36 48 52 55 59 68 67 63 75 73 62 55 68 67 68 70 57 51 50 40 38 37 40 30 30 31 30
19 29 4 6 21 17 27 43 48 14 21 31 34 45 53 58 60 62 40 48 45 40 36 39 52 59 58 68 65 64 57 62 62 71 71 61 76 74 56 52 47 42 41 41 39 33 32 32 29
Wind_Direction_850mb
183 284 257 236 238 233 250 237 251 114 234 85 11 230 321 352 344 57 120 3 184 184 201 187 185 178 176 179 177 187 182 176 167 157 158 156 153 150 152 148 148 147 143 140 138 142 125 33 12
148 233 223 259 246 243 235 232 185 251 66 92 237 268 264 272 43 72 55 16 142 182 196 191 188 183 179 182 178 186 185 179 171 163 163 162 160 157 157 154 152 151 144 144 144 146 67 15 8
174 207 249 228 235 253 266 13 100 235 73 272 277 228 312 13 42 5 9 43 135 187 191 198 190 186 182 180 183 187 186 183 175 168 167 168 168 164 161 160 158 156 153 152 153 123 22 6 24
196 208 255 255 254 237 262 25 319 317 242 235 262 286 202 58 28 0 347 298 251 191 187 219 194 188 187 184 189 189 188 187 181 176 173 175 173 169 165 164 165 163 158 155 155 63 355 13 24
218 248 245 239 250 265 185 300 337 274 268 239 206 270 258 147 90 351 342 336 213 199 197 228 198 192 190 188 191 193 191 187 188 184 180 181 176 175 172 167 172 173 167 166 155 332 353 28 16
230 250 247 248 244 242 241 279 239 269 268 250 255 248 266 219 277 342 342 313 203 192 185 221 196 192 195 195 193 194 193 189 192 190 190 187 181 179 178 172 178 181 179 180 169 194 197 36 8
251 250 253 269 277 286 141 302 293 266 260 253 284 293 266 203 30 343 336 309 189 184 190 221 194 191 197 196 197 196 196 194 195 197 197 192 184 186 184 185 184 186 190 197 190 176 245 19 9
284 283 270 265 260 264 291 119 271 277 271 293 309 248 212 330 337 312 314 287 210 187 192 193 189 194 196 197 200 197 197 198 201 202 201 194 190 191 191 194 194 190 199 206 186 167 338 18 11
270 265 259 272 243 269 322 278 281 246 279 282 272 270 278 296 300 291 279 273 227 203 196 190 187 190 187 191 196 199 201 203 204 204 200 195 198 195 196 196 197 197 201 203 192 199 21 14 45
259 273 280 26 346 313 310 292 282 285 264 266 272 269 267 274 283 282 278 253 243 212 198 197 189 193 185 192 199 195 199 201 199 200 197 189 197 185 184 220 201 200 196 198 195 46 50 31 282
277 266 319 313 296 301 291 283 275 265 267 263 274 283 288 279 274 276 270 269 228 238 207 202 193 196 186 192 193 184 187 188 189 192 198 175 198 200 183 218 204 199 194 213 346 29 24 344 263
278 277 280 288 297 284 277 284 281 274 271 276 276 276 281 275 270 271 262 259 225 223 224 207 202 196 186 193 197 188 187 189 187 194 199 185 190 206 187 200 197 190 217 195 205 244 225 335 324
260 271 295 285 283 277 282 274 277 276 272 267 261 268 270 270 265 269 259 259 257 217 223 207 209 194 187 193 190 190 191 192 193 194 192 197 187 199 193 196 191 198 202 220 215 236 231 277 308
317 288 285 279 276 280 276 278 276 271 263 255 256 260 268 267 265 259 260 256 241 240 227 224 214 199 185 191 188 188 188 195 193 193 196 194 184 199 191 196 182 192 202 214 213 218 183 235 258
283 281 273 261 251 274 286 281 253 265 276 267 252 255 264 271 267 263 253 249 243 235 230 236 214 211 198 196 190 189 187 190 193 194 199 189 181 205 184 192 186 193 198 210 213 237 228 205 240
247 262 278 148 212 254 254 275 291 212 247 257 252 265 268 270 268 262 258 250 248 238 230 228 227 214 210 199 198 193 194 191 188 192 209 195 187 201 175 188 195 197 192 199 213 205 222 222 251
201 271 289 300 291 283 258 277 292 279 276 269 263 265 267 264 265 260 251 248 243 240 234 224 225 217 211 202 199 193 196 193 190 193 197 198 194 197 182 188 191 200 196 204 201 204 228 219 249
322 308 300 298 299 300 287 279 272 276 275 272 270 269 258 265 261 263 257 247 241 238 233 224 222 227 217 209 196 194 197 195 194 191 193 200 192 194 183 189 195 207 191 202 197 210 213 234 236
294 283 284 287 289 295 286 286 284 276 266 265 269 265 264 264 262 261 256 249 241 234 230 228 222 223 219 211 197 192 194 189 196 193 195 201 190 192 195 190 199 193 197 199 209 215 226 215 220
279 279 279 289 302 309 293 286 287 273 266 264 267 271 266 268 266 260 255 251 240 234 227 226 222 220 219 215 200 196 199 194 193 194 194 203 192 194 197 184 201 196 198 207 220 203 201 210 210
290 293 310 316 306 285 273 273 273 248 258 273 251 265 275 273 272 267 262 258 244 228 226 223 224 221 218 216 207 198 198 194 193 194 196 198 191 197 200 184 196 210 189 227 219 207 204 214 213
298 335 313 297 294 290 318 291 282 260 273 265 282 275 255 273 272 273 262 255 243 228 227 221 224 224 216 212 214 205 199 190 195 193 190 187 186 194 189 194 191 207 198 216 223 211 207 188 205
292 309 297 279 273 278 272 252 281 305 286 296 253 242 288 277 280 281 270 255 242 230 226 223 222 227 213 211 210 204 198 195 194 188 190 183 192 194 192 197 196 209 184 215 212 217 206 211 189
275 288 296 275 252 248 300 309 299 317 343 319 291 268 274 286 284 292 281 265 248 233 228 221 221 230 211 210 210 204 195 192 187 187 188 176 190 191 187 199 199 198 185 215 215 226 213 183 200
314 309 312 316 180 254 201 296 308 331 324 312 314 282 251 272 287 289 299 291 262 236 233 222 219 224 218 211 206 198 193 193 189 175 178 177 193 193 198 198 200 199 202 214 214 215 212 207 203
305 307 280 311 308 312 314 294 288 304 317 274 272 280 292 274 276 291 305 296 286 271 228 230 217 224 216 208 204 197 192 190 193 193 200 195 194 197 205 200 197 203 206 211 213 205 200 209 203
306 278 293 281 285 279 275 275 277 37 279 299 280 259 260 283 285 296 286 292 295 287 268 235 217 219 212 208 203 200 190 193 184 188 193 199 195 210 209 200 200 206 204 207 204 195 198 196 183
246 289 297 247 282 302 303 309 322 346 334 322 295 263 301 297 300 305 299 299 302 297 284 267 221 220 215 207 206 198 199 195 185 201 194 189 197 195 207 198 199 202 201 199 174 195 193 178 173
246 238 223 295 274 288 294 285 348 331 318 359 341 339 316 326 317 298 300 297 297 298 279 258 230 213 220 207 204 204 201 193 179 195 202 190 196 203 205 189 195 199 198 188 188 179 178 168 171
268 275 245 206 279 263 286 282 285 312 297 318 317 307 311 313 305 312 313 297 290 289 286 259 244 215 222 212 206 200 202 199 196 210 202 192 196 204 193 187 190 194 186 188 185 182 169 173 173